sat.trackr.live / text

‹ back to catalog

BANDWAGON-2 OBJECT AE

NORAD 62405 · 2024-247AE

PAYLOAD ACTIVE UNKNOWN

§ Identity

Operator
Country
TBD
Launch date
2024-12-21
Launch site
AFWTR
Launch vehicle
Mass (kg)
RCS (m²)

External: N2YO · Heavens-Above · Gunter

§ Orbital elements

Epoch: 2026-09-22T09:33:57.181536Z

Period
90.73 min
Inclination
44.9685°
Eccentricity
0.0015939
Mean motion
15.87072499 rev/d
Perigee alt
299.8 km
Apogee alt
321.2 km
Semi-major
6,688.6 km
B*
1.0488e-3
RAAN
29.4925°
Arg perigee
318.8494°
Mean anomaly
41.1208°
Rev number
9,832

§ Raw data

BANDWAGON-2 OBJECT AE1 62405U 24247AE  26265.39857849  .00292375  00000+0  10488-2 0  99902 62405  44.9685  29.4925 0015939 318.8494  41.1208 15.87072499 98320

JSON: /api/v1/satellites/62405 · /tle

For live sub-satellite position, see the globe view (requires WebGL).

§ Visibility from observer

Set your observer location to see the next 7 days of passes ≥ 10°. The values pass through the URL so the page stays shareable.

No JS? Fill the form by hand. The geolocation button needs JavaScript.